Vorticity
nan nan nan nan nan nan nan nan nan nan nan nan nan nan nan nan nan nan nan nan nan nan nan nan nan nan nan nan nan nan nan nan
nan 6 6 6 8 7 6 6 7 9 6 6 8 7 5 4 3 6 8 6 3 5 9 7 8 6 4 7 6 4 5 nan
nan 6 6 6 8 8 7 6 5 6 6 6 2 5 8 7 5 5 7 5 6 7 7 8 7 4 4 5 3 4 6 nan
nan 7 6 5 6 7 6 6 5 5 7 5 4 8 8 8 9 7 5 5 6 8 8 6 4 3 7 4 5 8 5 nan
nan 7 7 5 5 5 5 7 8 8 7 5 6 6 6 7 8 8 8 7 6 8 6 5 7 7 6 7 8 6 6 nan
nan 6 6 4 6 8 8 6 6 8 8 5 4 5 7 7 7 7 7 9 8 5 5 8 8 8 7 7 6 6 7 nan
nan 6 6 6 5 6 7 8 8 8 7 6 5 6 7 6 8 8 8 8 8 7 6 6 7 7 7 8 7 7 6 nan
nan 6 6 6 6 6 5 7 7 8 9 8 6 5 8 7 7 8 8 7 8 9 8 7 8 9 7 8 9 7 7 nan
nan 8 8 7 5 5 6 7 7 7 9 10 7 6 7 7 6 8 8 8 6 6 8 8 8 9 9 7 8 7 9 nan
nan 7 8 6 6 5 6 8 7 7 9 10 10 7 6 6 7 7 8 9 7 7 7 7 7 8 8 8 11 8 9 nan
nan 8 8 6 6 7 9 8 6 8 9 10 11 8 7 6 7 9 8 7 8 6 7 9 7 7 7 8 10 12 9 nan
nan 8 8 6 4 7 8 8 9 9 9 11 9 8 8 6 8 10 7 6 7 9 7 7 11 9 7 5 8 11 9 nan
nan 7 7 5 6 6 8 8 6 7 10 12 8 8 8 6 7 9 8 9 9 5 8 7 6 10 6 5 9 11 10 nan
nan 10 8 4 5 6 8 10 8 9 9 9 8 9 8 7 7 7 7 7 9 8 4 4 10 9 4 7 6 7 14 nan
nan 12 9 7 4 2 6 7 10 11 10 9 10 11 9 8 7 8 8 7 8 8 8 5 5 7 7 3 7 9 10 nan
nan 13 9 9 7 7 8 3 4 8 9 10 10 10 10 10 8 8 7 7 9 8 7 7 7 6 4 6 6 12 6 nan
nan 13 9 10 8 5 4 6 6 11 14 11 9 7 8 9 9 8 7 7 10 9 9 7 6 8 8 5 2 11 9 nan
nan 18 12 10 9 8 6 6 7 8 9 7 10 8 9 9 9 9 9 10 9 9 10 9 6 6 9 8 7 6 9 nan
nan 14 15 17 13 11 10 9 8 7 6 7 7 7 10 11 8 8 10 11 10 9 9 9 8 8 8 6 8 4 7 nan
nan nan nan nan nan nan nan nan nan nan nan nan nan nan nan nan nan nan nan nan nan nan nan nan nan nan nan nan nan nan nan nan
CAPE
645 879 1071 1289 1472 1472 1136 1024 1143 1418 1005 818 773 616 366 551 451 176 349 367 598 404 802 612 513 211 163 103 233 186 195 252
567 725 876 989 1084 1211 1111 929 1021 1197 710 550 377 80 118 335 165 250 338 420 523 544 681 488 353 143 60 36 76 111 126 140
484 651 636 544 751 1013 967 825 919 937 603 295 69 11 2 163 25 85 294 360 377 835 562 442 154 92 24 60 105 37 43 33
463 594 600 492 854 930 761 904 923 816 238 35 0 0 0 4 183 53 102 111 467 838 530 127 105 79 18 41 47 26 0 0
685 642 680 720 809 759 781 756 767 673 130 0 0 0 0 0 41 176 40 259 354 314 184 73 78 62 28 30 38 3 0 2
1025 898 927 1022 724 567 708 738 673 582 322 0 0 0 0 0 0 0 41 146 218 105 83 45 64 65 18 43 45 17 0 1
1400 1184 1154 1246 1012 495 607 688 680 609 196 79 8 17 0 0 0 0 12 0 12 19 12 44 52 77 15 27 31 17 4 5
1638 1475 1438 1430 1281 878 684 698 659 617 559 396 316 232 40 0 6 2 0 0 0 4 0 4 46 62 46 22 44 5 12 0
1570 1649 1652 1654 1248 1181 887 843 752 741 823 647 619 358 120 56 24 0 0 0 0 0 0 0 17 36 58 19 27 2 4 0
1736 1877 1902 1772 1468 1354 1195 868 832 929 777 910 644 399 268 95 39 3 0 0 0 0 0 0 12 41 26 4 2 1 0 0
1712 1815 1977 1969 1627 1324 1255 1188 797 848 992 899 684 418 320 166 47 18 2 0 2 0 0 0 11 23 26 0 0 0 0 0
1444 1714 1947 2108 1843 1388 1065 1094 894 799 936 954 669 441 284 159 13 3 31 0 0 0 0 0 0 21 47 14 0 0 0 0
1111 1535 1850 2130 1799 1375 1129 1169 886 909 755 787 757 547 294 146 15 0 14 11 0 0 0 0 0 4 19 1 0 0 0 0
518 1416 1685 2174 1967 1784 1521 1315 921 995 746 590 661 628 457 391 205 33 0 7 0 0 0 0 0 2 0 10 3 1 0 0
0 1250 1712 2213 2048 1608 777 414 307 605 861 805 736 770 639 524 267 81 63 72 11 0 0 0 0 0 0 1 0 0 0 0
0 1101 1705 2170 1914 1563 1318 1433 1168 1121 1025 993 593 586 567 423 229 122 127 123 17 0 0 0 0 1 0 0 0 0 0 0
204 1220 1779 2032 1979 1666 1405 1387 1201 707 613 401 573 443 431 285 197 62 51 143 96 0 1 0 0 0 0 0 0 0 0 0
25 1186 1699 1795 1975 1728 1546 1206 683 462 533 463 414 338 238 194 164 124 68 102 109 14 0 0 1 0 0 0 0 0 0 0
197 548 697 1398 1608 1581 1449 989 644 548 457 389 254 150 120 97 110 80 76 79 44 17 1 2 2 0 0 0 1 0 0 0
33 75 636 565 598 945 966 655 537 434 341 177 136 160 116 38 21 33 33 19 11 8 5 7 1 0 0 0 0 0 0 0